Regional Weather Roundup
Issued by NWS

Home | Current Version | Previous Version | Graphics & Text | Print | Product List | Glossary On
Versions: 1 2 3 4 5 6 7 8 9 10 11 12 13 14 15 16 17 18 19 20 21 22 23 24 25 26 27 28 29 30 31 32 33 34 35 36 37 38 39 40 41 42 43 44 45 46 47 48 49 50
897
ASUS45 KBOU 030207
RWRCO

WEATHER ROUNDUP FOR COLORADO
NATIONAL WEATHER SERVICE DENVER/BOULDER CO
700 PM MST FRI DEC 02 2016

NOTE: "FAIR" INDICATES FEW OR NO CLOUDS BELOW 12000 FEET WITH NO
SIGNIFICANT WEATHER AND/OR OBSTRUCTIONS TO VISIBILITY.

COZ001>005-013-030-031-030300-
...NORTHWEST COLORADO...

CITY           SKY/WX    TMP DP  RH WIND       PRES   REMARKS
CRAIG          CLOUDY    23  16  74 SW3       30.18R
HAYDEN         CLOUDY    21  12  68 W6        30.15S WCI  14
MEEKER         CLOUDY    19  13  77 NW6       30.16R WCI  11
MOUNT WERNER   NOT AVBL
STEAMBOAT SPGS CLOUDY    19  16  89 CALM      30.15R
WALDEN           N/A     12   9  85 NW8       30.09R WCI   1
$$

COZ006>008-011-030300-
...WEST CENTRAL VALLEYS...

CITY           SKY/WX    TMP DP  RH WIND       PRES   REMARKS
GRAND JUNCTION CLOUDY    34  19  54 NE13      30.14R WCI  25
MONTROSE       LGT SNOW  29  25  85 CALM      30.16R FOG
EAGLE          FLURRIES  27  21  80 W7        30.13R WCI  19
RIFLE          CLOUDY    30  23  75 W5        30.16R WCI  25
DELTA          NOT AVBL
NUCLA          LGT SNOW  32  27  80 NW6       30.16R WCI  26
$$

COZ017>023-064>068-030300-
...SOUTHWEST COLORADO...

CITY           SKY/WX    TMP DP  RH WIND       PRES   REMARKS
DURANGO        CLOUDY    31  27  85 N9        30.05R WCI  23
CORTEZ         CLOUDY    33  25  72 CALM      30.07R
PAGOSA SPRINGS CLOUDY    30  29  96 CALM      30.06R
TELLURIDE      LGT SNOW  21  19  90 W3        30.07R
WOLF CREEK PAS LGT SNOW  14  14 100 S13G20    30.07S VSB 1   WCI   0
$$

COZ009-010-012-014-032>034-037-058>063-030300-
...CENTRAL COLORADO...

CITY           SKY/WX    TMP DP  RH WIND       PRES   REMARKS
ASPEN          LGT SNOW  22  21  96 N5        30.07R FOG     WCI  16
BUENA VISTA    LGT SNOW  15  12  88 CALM      30.12S
COPPER MTN     NOT AVBL
BERTHOUD PASS  FAIR       3  -8  60 W6        29.99R WCI  -8
COTTONWOOD PAS LGT SNOW  18  14  86 CALM      30.06S
GUNNISON       FAIR      22  17  81 CALM      30.07R
KREMMLING      LGT SNOW  27  21  80 CALM      30.11R
LEADVILLE      LGT SNOW  11   8  88 CALM      30.04R FOG
MONARCH PASS   CLOUDY    12   9  85 S7        30.12S WCI   2
SALIDA         CLOUDY    22  20  91 CALM      30.20S
SUNLIGHT       LGT SNOW N/A N/A N/A NW5       30.08R
WILKERSON PASS CLOUDY     9   5  85 SW10G16   30.05S WCI  -6
$$

COZ069>075-030300-
...SAN LUIS VALLEY/SANGRE DE CRISTO MOUNTAINS...

CITY           SKY/WX    TMP DP  RH WIND       PRES   REMARKS
ALAMOSA        CLOUDY    20  18  92 W3        30.09R
LA VETA PASS   SNOW      16  12  86 SW8       30.07R VSB 1/2 WCI   5
SAGUACHE       CLOUDY    25  23  93 SW3       30.09R
$$

COZ035-036-038>040-030300-
...NORTHERN COLORADO FRONT RANGE...

CITY           SKY/WX    TMP DP  RH WIND       PRES   REMARKS
DENVER INTL AP MOCLDY    25  20  81 S6        30.16R WCI  18
DMNS CITY PARK   N/A     29  21  74 E5G10     30.15F WCI  24
AURORA         PTCLDY    22  17  79 S8        30.16S WCI  13
FRONT RANGE AP MOCLDY    25  19  80 S6        30.17R WCI  18
ERIE MUNI ARPT CLOUDY    30  26  85 CALM      30.18S
BOULDER MUN AP FLURRIES  30  28  93 CALM      30.17S
CENTENNIAL     FAIR      23  18  81 S6        30.15R WCI  16
BROOMFIELD     CLOUDY    28  27  93 N3        30.16S
FORT COLLINS   MOCLDY    27  25  93 CALM      30.19R
LONGMONT       FLURRIES  32  28  84 CALM      30.20S
$$

COZ041-046-047-076>085-087-088-030300-
...PIKES PEAK/PALMER DIVIDE AND SOUTHERN FOOTHILLS...

CITY           SKY/WX    TMP DP  RH WIND       PRES   REMARKS
COLO. SPRINGS  CLOUDY    26  19  74 CALM      30.17R
A. F. ACADEMY  CLOUDY    22  19  87 S5        30.14F WCI  16
SCHRIEVER AFB  NOT AVBL
ELLICOTT       CLOUDY   N/A N/A N/A CALM      30.16R
FALCON         CLOUDY    22  20  91 S3        30.16S
FORT CARSON    CLOUDY    27  19  71 SW5       30.16R WCI  21
LIMON          MOCLDY    16  14  92 N6        30.19R WCI   7
MONUMENT HILL  FAIR      18  14  86 S9        30.14S WCI   6
TRINIDAD       CLOUDY    30  22  72 E3        30.16R
$$

COZ042>045-048>051-090-091-030300-
...NORTHEAST COLORADO...

CITY           SKY/WX    TMP DP  RH WIND       PRES   REMARKS
GREELEY ARPT   CLOUDY    30  23  75 E5        30.20R WCI  25
AKRON          CLOUDY    27  18  69 SW6       30.19F WCI  20
BURLINGTON     CLOUDY    33  18  53 NE6       30.22S WCI  28
WRAY           CLOUDY    32  21  64 CALM      30.24R
STERLING       FAIR      28  21  74 CALM      30.21R
HOLYOKE        FAIR      34  23  64 S3        30.23S
FORT MORGAN    CLOUDY    30  20  66 SE6       30.20S WCI  24
$$

COZ086-089-092>099-030300-
...SOUTHEAST COLORADO...

CITY           SKY/WX    TMP DP  RH WIND       PRES   REMARKS
PUEBLO         CLOUDY    30  19  63 W3        30.20R
LA JUNTA       CLOUDY    34  15  46 CALM      30.20R
LAMAR          LGT RAIN  40  18  41 NE8       30.21R
SPRINGFIELD      N/A     35  13  40 NE7       30.19R WCI  29
$$




USA.gov is the U.S. government's official web portal to all federal, state and local government web resources and services.